Location: Gro�bocka
(50.8204°N, 11.9702°E)
Time: 22:52:21
(UTC+00:00)

X-37B - Pass Details

Date: 29 June 2021
Orbit: 383 x 392 km, 45.0° (Epoch: 01 July)

Event Time Altitude Azimuth Distance (km) Brightness Sun altitude
Rises 21:06:11 0° 262° (W) 2,258 4.8 -10.7°
Reaches altitude 10° 21:08:29 10° 248° (WSW) 1,403 3.5 -10.9°
Maximum altitude 21:11:05 24° 192° (SSW) 850 1.9 -11.1°
Enters shadow 21:12:17 19° 158° (SSE) 990 2.0 -11.2°
